Station Historical Data
Daily Summary for February 11, 2018 Units:  English    Metric   Both
« Previous Day
Next Day »
Daily Weekly Monthly Yearly Custom
  High: Low: Average:
Temperature: 42.6 °F 25.2 °F 30.6 °F
Dew Point: 35.2 °F 22.7 °F 27.3 °F
Humidity: 91% 74% 88%
Wind Speed: 22.0mph 0.0mph 5.6mph
Wind Gust: 30.0mph - -
Wind- - SE
Pressure: 30.16 in 29.66 in -
Precipitation: 0.00 in    
Historical Graphs
 
 
Tabular Data for February 11, 2018
Time Temperature Dew Point Pressure Wind Wind Speed Wind Gust Humidity Rainfall Rate (Hourly)
00:04 26.2 °F 23.4 °F 30.14 in NE 2.0 mph 7.0 mph 89% 0.00 in
00:09 26.2 °F 23.4 °F 30.15 in NE 3.0 mph 7.0 mph 89% 0.00 in
00:14 26.2 °F 23.4 °F 30.14 in NE 3.0 mph 7.0 mph 89% 0.00 in
00:19 26.2 °F 23.4 °F 30.14 in NE 2.0 mph 9.0 mph 89% 0.00 in
00:24 26.2 °F 23.4 °F 30.15 in NE 4.0 mph 7.0 mph 89% 0.00 in
00:29 26.1 °F 23.3 °F 30.15 in NE 4.0 mph 8.0 mph 89% 0.00 in
00:34 26.1 °F 23.3 °F 30.15 in NE 3.0 mph 7.0 mph 89% 0.00 in
00:39 26.1 °F 23.3 °F 30.15 in NE 3.0 mph 7.0 mph 89% 0.00 in
00:44 26.1 °F 23.3 °F 30.15 in NE 4.0 mph 7.0 mph 89% 0.00 in
00:49 26.1 °F 23.3 °F 30.15 in NE 4.0 mph 7.0 mph 89% 0.00 in
00:54 26.1 °F 23.3 °F 30.15 in NE 4.0 mph 8.0 mph 89% 0.00 in
00:59 26.1 °F 23.3 °F 30.14 in NE 4.0 mph 8.0 mph 89% 0.00 in
01:05 26.1 °F 23.3 °F 30.14 in NE 3.0 mph 8.0 mph 89% 0.00 in
01:10 26.1 °F 23.3 °F 30.14 in NE 4.0 mph 10.0 mph 89% 0.00 in
01:15 26.1 °F 23.3 °F 30.14 in ENE 1.0 mph 8.0 mph 89% 0.00 in
01:20 26.0 °F 23.2 °F 30.14 in NE 2.0 mph 7.0 mph 89% 0.00 in
01:25 26.0 °F 23.2 °F 30.14 in NNE 5.0 mph 6.0 mph 89% 0.00 in
01:30 26.1 °F 23.3 °F 30.14 in NE 4.0 mph 8.0 mph 89% 0.00 in
01:35 26.1 °F 23.3 °F 30.14 in NE 5.0 mph 10.0 mph 89% 0.00 in
01:40 26.0 °F 23.2 °F 30.14 in NE 6.0 mph 9.0 mph 89% 0.00 in
01:45 26.0 °F 23.2 °F 30.14 in NE 4.0 mph 9.0 mph 89% 0.00 in
01:50 26.0 °F 23.2 °F 30.14 in NE 5.0 mph 8.0 mph 89% 0.00 in
01:55 26.0 °F 23.2 °F 30.14 in NE 5.0 mph 8.0 mph 89% 0.00 in
02:00 25.9 °F 23.1 °F 30.14 in NE 7.0 mph 9.0 mph 89% 0.00 in
02:05 25.9 °F 23.4 °F 30.14 in NE 5.0 mph 9.0 mph 90% 0.00 in
02:10 25.9 °F 23.1 °F 30.14 in NE 5.0 mph 9.0 mph 89% 0.00 in
02:15 25.9 °F 23.1 °F 30.14 in NE 4.0 mph 8.0 mph 89% 0.00 in
02:20 25.9 °F 23.1 °F 30.14 in NE 5.0 mph 9.0 mph 89% 0.00 in
02:25 25.9 °F 23.1 °F 30.14 in NE 2.0 mph 8.0 mph 89% 0.00 in
02:30 25.9 °F 23.1 °F 30.14 in NE 6.0 mph 8.0 mph 89% 0.00 in
02:35 25.9 °F 23.4 °F 30.13 in NE 5.0 mph 10.0 mph 90% 0.00 in
02:40 25.9 °F 23.4 °F 30.14 in NE 5.0 mph 11.0 mph 90% 0.00 in
02:45 25.8 °F 23.3 °F 30.13 in NE 5.0 mph 11.0 mph 90% 0.00 in
02:50 25.8 °F 23.3 °F 30.13 in NE 5.0 mph 9.0 mph 90% 0.00 in
02:55 25.8 °F 23.3 °F 30.13 in NE 3.0 mph 9.0 mph 90% 0.00 in
03:00 25.8 °F 23.3 °F 30.13 in NNE 6.0 mph 8.0 mph 90% 0.00 in
03:05 25.8 °F 23.3 °F 30.13 in NE 5.0 mph 9.0 mph 90% 0.00 in
03:10 25.8 °F 23.3 °F 30.12 in NE 5.0 mph 9.0 mph 90% 0.00 in
03:15 25.8 °F 23.3 °F 30.12 in NE 5.0 mph 9.0 mph 90% 0.00 in
03:20 25.7 °F 23.2 °F 30.12 in NE 5.0 mph 9.0 mph 90% 0.00 in
03:25 25.7 °F 23.2 °F 30.12 in NE 5.0 mph 9.0 mph 90% 0.00 in
03:30 25.6 °F 23.1 °F 30.12 in NE 5.0 mph 11.0 mph 90% 0.00 in
03:35 25.7 °F 23.2 °F 30.11 in NE 6.0 mph 11.0 mph 90% 0.00 in
03:40 25.7 °F 23.2 °F 30.10 in NE 6.0 mph 12.0 mph 90% 0.00 in
03:50 25.6 °F 23.1 °F 30.09 in ENE 5.0 mph 10.0 mph 90% 0.00 in
03:55 25.6 °F 23.1 °F 30.09 in NE 9.0 mph 10.0 mph 90% 0.00 in
04:00 25.5 °F 23.0 °F 30.09 in ENE 8.0 mph 11.0 mph 90% 0.00 in
04:05 25.5 °F 23.0 °F 30.09 in East 3.0 mph 13.0 mph 90% 0.00 in
04:10 25.5 °F 23.0 °F 30.08 in NE 7.0 mph 13.0 mph 90% 0.00 in
04:15 25.5 °F 23.0 °F 30.08 in NE 3.0 mph 12.0 mph 90% 0.00 in
04:25 25.4 °F 22.9 °F 30.07 in ENE 5.0 mph 13.0 mph 90% 0.00 in
04:30 25.4 °F 22.9 °F 30.07 in ENE 6.0 mph 12.0 mph 90% 0.00 in
04:35 25.3 °F 22.8 °F 30.07 in ENE 6.0 mph 13.0 mph 90% 0.00 in
04:39 25.3 °F 22.8 °F 30.07 in NE 6.0 mph 10.0 mph 90% 0.00 in
04:45 25.3 °F 22.8 °F 30.07 in NNE 4.0 mph 12.0 mph 90% 0.00 in
04:50 25.3 °F 22.8 °F 30.07 in ENE 2.0 mph 12.0 mph 90% 0.00 in
04:54 25.3 °F 22.8 °F 30.07 in ENE 4.0 mph 12.0 mph 90% 0.00 in
05:00 25.3 °F 22.8 °F 30.06 in ENE 4.0 mph 8.0 mph 90% 0.00 in
05:05 25.3 °F 22.8 °F 30.06 in ENE 4.0 mph 11.0 mph 90% 0.00 in
05:10 25.2 °F 22.7 °F 30.06 in NE 4.0 mph 9.0 mph 90% 0.00 in
05:15 25.2 °F 22.7 °F 30.06 in ENE 5.0 mph 10.0 mph 90% 0.00 in
05:20 25.3 °F 22.8 °F 30.06 in NE 4.0 mph 10.0 mph 90% 0.00 in
05:25 25.2 °F 22.7 °F 30.05 in NNE 8.0 mph 10.0 mph 90% 0.00 in
05:29 25.3 °F 22.8 °F 30.05 in ENE 5.0 mph 11.0 mph 90% 0.00 in
05:35 25.3 °F 22.8 °F 30.05 in ENE 6.0 mph 14.0 mph 90% 0.00 in
05:40 25.2 °F 22.7 °F 30.04 in ENE 6.0 mph 14.0 mph 90% 0.00 in
05:45 25.3 °F 22.8 °F 30.05 in ENE 5.0 mph 13.0 mph 90% 0.00 in
05:49 25.3 °F 22.8 °F 30.05 in NE 3.0 mph 11.0 mph 90% 0.00 in
05:54 25.3 °F 22.8 °F 30.04 in ENE 4.0 mph 10.0 mph 90% 0.00 in
05:59 25.3 °F 22.8 °F 30.04 in NE 5.0 mph 8.0 mph 90% 0.00 in
06:04 25.3 °F 22.8 °F 30.04 in ENE 4.0 mph 8.0 mph 90% 0.00 in
06:10 25.3 °F 22.8 °F 30.03 in ENE 4.0 mph 9.0 mph 90% 0.00 in
06:15 25.4 °F 22.9 °F 30.03 in ENE 4.0 mph 13.0 mph 90% 0.00 in
06:20 25.4 °F 22.9 °F 30.04 in East 1.0 mph 13.0 mph 90% 0.00 in
06:25 25.4 °F 22.9 °F 30.03 in SE 4.0 mph 11.0 mph 90% 0.00 in
06:30 25.5 °F 23.0 °F 30.03 in NNE 4.0 mph 10.0 mph 90% 0.00 in
06:35 25.5 °F 23.0 °F 30.02 in East 7.0 mph 11.0 mph 90% 0.00 in
06:39 25.5 °F 23.0 °F 30.02 in ENE 6.0 mph 11.0 mph 90% 0.00 in
06:49 25.6 °F 23.1 °F 30.01 in East 3.0 mph 11.0 mph 90% 0.00 in
06:54 25.6 °F 23.1 °F 30.00 in East 9.0 mph 13.0 mph 90% 0.00 in
06:59 25.6 °F 23.1 °F 30.00 in ENE 5.0 mph 11.0 mph 90% 0.00 in
07:04 25.6 °F 23.1 °F 29.99 in ESE 7.0 mph 11.0 mph 90% 0.00 in
07:10 25.6 °F 23.1 °F 29.99 in ENE 5.0 mph 11.0 mph 90% 0.00 in
07:14 25.6 °F 23.1 °F 29.99 in ENE 5.0 mph 11.0 mph 90% 0.00 in
07:20 25.6 °F 23.1 °F 29.99 in ENE 5.0 mph 11.0 mph 90% 0.00 in
07:25 25.6 °F 23.1 °F 29.98 in ENE 4.0 mph 10.0 mph 90% 0.00 in
07:30 25.6 °F 23.1 °F 29.97 in ENE 5.0 mph 14.0 mph 90% 0.00 in
07:35 25.7 °F 23.2 °F 29.97 in ENE 5.0 mph 14.0 mph 90% 0.00 in
07:40 25.7 °F 23.2 °F 29.97 in ENE 5.0 mph 10.0 mph 90% 0.00 in
07:45 25.8 °F 23.3 °F 29.97 in NE 6.0 mph 9.0 mph 90% 0.00 in
07:49 25.8 °F 23.3 °F 29.96 in ENE 5.0 mph 11.0 mph 90% 0.00 in
07:54 25.9 °F 23.4 °F 29.96 in ENE 5.0 mph 11.0 mph 90% 0.00 in
07:59 25.9 °F 23.4 °F 29.96 in NNE 3.0 mph 11.0 mph 90% 0.00 in
08:04 26.0 °F 23.5 °F 29.96 in NE 3.0 mph 9.0 mph 90% 0.00 in
08:10 26.2 °F 23.7 °F 29.96 in ENE 3.0 mph 10.0 mph 90% 0.00 in
08:15 26.3 °F 23.8 °F 29.96 in NE 4.0 mph 11.0 mph 90% 0.00 in
08:20 26.4 °F 23.9 °F 29.96 in ENE 3.0 mph 9.0 mph 90% 0.00 in
08:24 26.4 °F 23.9 °F 29.95 in NE 5.0 mph 10.0 mph 90% 0.00 in
08:29 26.5 °F 23.7 °F 29.95 in NE 6.0 mph 10.0 mph 89% 0.00 in
08:35 26.6 °F 24.1 °F 29.94 in NE 6.0 mph 10.0 mph 90% 0.00 in
08:40 26.7 °F 24.2 °F 29.94 in NE 6.0 mph 11.0 mph 90% 0.00 in
08:45 26.9 °F 24.1 °F 29.93 in NE 6.0 mph 11.0 mph 89% 0.00 in
08:50 27.0 °F 24.2 °F 29.93 in NE 6.0 mph 11.0 mph 89% 0.00 in
08:54 27.2 °F 24.4 °F 29.94 in NE 3.0 mph 9.0 mph 89% 0.00 in
08:59 27.4 °F 24.6 °F 29.93 in NNE 5.0 mph 8.0 mph 89% 0.00 in
09:04 27.5 °F 24.7 °F 29.94 in NNE 6.0 mph 8.0 mph 89% 0.00 in
09:09 27.7 °F 24.9 °F 29.93 in ENE 2.0 mph 10.0 mph 89% 0.00 in
09:14 28.0 °F 25.2 °F 29.93 in NE 5.0 mph 9.0 mph 89% 0.00 in
09:19 28.1 °F 25.0 °F 29.92 in NE 4.0 mph 10.0 mph 88% 0.00 in
09:25 28.2 °F 25.1 °F 29.92 in NNE 5.0 mph 11.0 mph 88% 0.00 in
09:30 28.5 °F 25.4 °F 29.92 in NE 4.0 mph 11.0 mph 88% 0.00 in
09:34 28.7 °F 25.6 °F 29.90 in NE 6.0 mph 11.0 mph 88% 0.00 in
09:39 29.0 °F 25.6 °F 29.90 in NE 6.0 mph 11.0 mph 87% 0.00 in
09:44 29.1 °F 25.7 °F 29.89 in NE 6.0 mph 11.0 mph 87% 0.00 in
09:50 29.4 °F 26.0 °F 29.89 in NE 6.0 mph 11.0 mph 87% 0.00 in
09:55 29.5 °F 25.8 °F 29.89 in NE 6.0 mph 11.0 mph 86% 0.00 in
09:59 29.8 °F 26.1 °F 29.89 in NE 4.0 mph 9.0 mph 86% 0.00 in
10:04 30.2 °F 26.5 °F 29.87 in NE 4.0 mph 11.0 mph 86% 0.00 in
10:09 30.4 °F 26.7 °F 29.88 in NE 5.0 mph 11.0 mph 86% 0.00 in
10:14 30.4 °F 26.7 °F 29.88 in NE 5.0 mph 10.0 mph 86% 0.00 in
10:19 30.4 °F 26.4 °F 29.87 in NE 4.0 mph 11.0 mph 85% 0.00 in
10:25 30.6 °F 26.6 °F 29.87 in NE 3.0 mph 7.0 mph 85% 0.00 in
10:30 30.7 °F 26.7 °F 29.86 in ENE 3.0 mph 9.0 mph 85% 0.00 in
10:35 31.2 °F 27.2 °F 29.85 in NE 5.0 mph 9.0 mph 85% 0.00 in
10:39 31.9 °F 27.9 °F 29.84 in ENE 5.0 mph 11.0 mph 85% 0.00 in
10:45 32.4 °F 28.1 °F 29.83 in ENE 5.0 mph 11.0 mph 84% 0.00 in
10:49 32.6 °F 28.0 °F 29.83 in NE 5.0 mph 11.0 mph 83% 0.00 in
10:54 32.7 °F 28.1 °F 29.83 in NE 5.0 mph 11.0 mph 83% 0.00 in
11:00 32.8 °F 27.9 °F 29.82 in NE 5.0 mph 10.0 mph 82% 0.00 in
11:04 33.0 °F 28.1 °F 29.82 in ENE 3.0 mph 9.0 mph 82% 0.00 in
11:09 33.4 °F 28.5 °F 29.81 in ENE 7.0 mph 11.0 mph 82% 0.00 in
11:14 33.7 °F 28.8 °F 29.81 in NE 5.0 mph 11.0 mph 82% 0.00 in
11:19 34.1 °F 28.9 °F 29.80 in NE 4.0 mph 9.0 mph 81% 0.00 in
11:24 34.2 °F 29.0 °F 29.80 in NE 4.0 mph 8.0 mph 81% 0.00 in
11:29 34.1 °F 28.9 °F 29.79 in NE 4.0 mph 9.0 mph 81% 0.00 in
11:35 34.0 °F 28.8 °F 29.79 in ENE 3.0 mph 8.0 mph 81% 0.00 in
11:40 34.0 °F 29.1 °F 29.78 in NE 5.0 mph 5.0 mph 82% 0.00 in
11:45 34.1 °F 29.2 °F 29.78 in NE 6.0 mph 7.0 mph 82% 0.00 in
11:49 34.3 °F 29.4 °F 29.77 in NE 4.0 mph 7.0 mph 82% 0.00 in
11:54 34.6 °F 29.7 °F 29.77 in NE 4.0 mph 6.0 mph 82% 0.00 in
11:59 34.8 °F 29.9 °F 29.76 in NE 3.0 mph 7.0 mph 82% 0.00 in
12:04 35.0 °F 30.1 °F 29.76 in NE 3.0 mph 8.0 mph 82% 0.00 in
12:10 35.5 °F 30.5 °F 29.76 in NE 3.0 mph 8.0 mph 82% 0.00 in
12:14 35.8 °F 30.8 °F 29.75 in NE 5.0 mph 6.0 mph 82% 0.00 in
12:19 36.0 °F 30.7 °F 29.75 in NE 2.0 mph 6.0 mph 81% 0.00 in
12:24 36.2 °F 30.9 °F 29.75 in NE 2.0 mph 6.0 mph 81% 0.00 in
12:29 36.3 °F 31.0 °F 29.74 in NE 2.0 mph 4.0 mph 81% 0.00 in
12:34 36.7 °F 31.4 °F 29.73 in NE 2.0 mph 6.0 mph 81% 0.00 in
12:39 36.6 °F 31.3 °F 29.73 in NE 2.0 mph 6.0 mph 81% 0.00 in
12:44 36.4 °F 30.8 °F 29.72 in NE 2.0 mph 5.0 mph 80% 0.00 in
12:49 36.2 °F 30.9 °F 29.72 in NE 4.0 mph 4.0 mph 81% 0.00 in
12:55 36.3 °F 31.0 °F 29.72 in NE 1.0 mph 4.0 mph 81% 0.00 in
12:59 36.5 °F 31.2 °F 29.72 in NE 2.0 mph 4.0 mph 81% 0.00 in
13:04 36.5 °F 31.2 °F 29.71 in NE 2.0 mph 5.0 mph 81% 0.00 in
13:09 36.6 °F 31.6 °F 29.70 in NE 2.0 mph 5.0 mph 82% 0.00 in
13:14 36.9 °F 31.9 °F 29.70 in Calm   5.0 mph 82% 0.00 in
13:19 37.7 °F 32.4 °F 29.69 in NE 2.0 mph 3.0 mph 81% 0.00 in
13:24 38.6 °F 33.0 °F 29.68 in NE 2.0 mph 4.0 mph 80% 0.00 in
13:29 39.5 °F 33.5 °F 29.67 in NE 4.0 mph 4.0 mph 79% 0.00 in
13:34 40.5 °F 34.2 °F 29.67 in NE 2.0 mph 4.0 mph 78% 0.00 in
13:39 41.2 °F 34.5 °F 29.66 in NE 1.0 mph 4.0 mph 77% 0.00 in
13:44 41.9 °F 34.9 °F 29.67 in Calm   4.0 mph 76% 0.00 in
13:49 42.1 °F 35.1 °F 29.66 in Calm   2.0 mph 76% 0.00 in
13:54 42.6 °F 34.9 °F 29.66 in Calm   2.0 mph 74% 0.00 in
13:59 42.6 °F 35.2 °F 29.66 in Calm     75% 0.00 in
14:04 42.0 °F 34.6 °F 29.67 in Calm   1.0 mph 75% 0.00 in
14:09 42.0 °F 35.0 °F 29.67 in Calm   3.0 mph 76% 0.00 in
14:14 42.2 °F 35.2 °F 29.66 in NE 1.0 mph 3.0 mph 76% 0.00 in
14:19 41.5 °F 34.5 °F 29.67 in NE 1.0 mph 3.0 mph 76% 0.00 in
14:24 41.1 °F 34.4 °F 29.67 in NE 1.0 mph 3.0 mph 77% 0.00 in
14:29 41.1 °F 34.8 °F 29.67 in Calm     78% 0.00 in
14:34 41.0 °F 34.7 °F 29.69 in West 5.0 mph 13.0 mph 78% 0.00 in
14:39 39.9 °F 33.6 °F 29.69 in West 9.0 mph 11.0 mph 78% 0.00 in
14:44 38.6 °F 32.6 °F 29.68 in WNW 6.0 mph 14.0 mph 79% 0.00 in
14:49 37.6 °F 32.0 °F 29.67 in NW 5.0 mph 14.0 mph 80% 0.00 in
14:54 37.0 °F 31.7 °F 29.69 in NW 3.0 mph 11.0 mph 81% 0.00 in
14:59 36.7 °F 31.7 °F 29.68 in NW 2.0 mph 5.0 mph 82% 0.00 in
15:04 36.4 °F 32.0 °F 29.68 in NW 1.0 mph 7.0 mph 84% 0.00 in
15:09 36.1 °F 32.0 °F 29.69 in NW 3.0 mph 5.0 mph 85% 0.00 in
15:10 36.1 °F 32.0 °F 29.69 in NW 2.0 mph 7.0 mph 85% 0.00 in
15:15 35.8 °F 31.7 °F 29.68 in NNW 3.0 mph 4.0 mph 85% 0.00 in
15:20 35.5 °F 31.7 °F 29.68 in NW 2.0 mph 4.0 mph 86% 0.00 in
15:24 35.1 °F 31.3 °F 29.69 in NW 2.0 mph 4.0 mph 86% 0.00 in
15:29 34.8 °F 31.0 °F 29.70 in NW 2.0 mph 8.0 mph 86% 0.00 in
15:34 34.4 °F 30.9 °F 29.70 in NW 3.0 mph 8.0 mph 87% 0.00 in
15:39 34.2 °F 30.7 °F 29.71 in WNW 1.0 mph 6.0 mph 87% 0.00 in
15:44 34.1 °F 30.6 °F 29.70 in West 2.0 mph 6.0 mph 87% 0.00 in
15:50 34.1 °F 30.9 °F 29.71 in West 2.0 mph 6.0 mph 88% 0.00 in
15:55 34.1 °F 30.9 °F 29.71 in West 2.0 mph 4.0 mph 88% 0.00 in
16:00 34.3 °F 31.4 °F 29.71 in West 3.0 mph 6.0 mph 89% 0.00 in
16:05 34.5 °F 31.6 °F 29.71 in West 2.0 mph 6.0 mph 89% 0.00 in
16:09 34.7 °F 31.8 °F 29.71 in West 2.0 mph 3.0 mph 89% 0.00 in
16:14 34.9 °F 32.0 °F 29.72 in West 4.0 mph 4.0 mph 89% 0.00 in
16:19 35.3 °F 32.7 °F 29.72 in SSW 5.0 mph 6.0 mph 90% 0.00 in
16:24 35.6 °F 33.0 °F 29.72 in SW 4.0 mph 7.0 mph 90% 0.00 in
16:29 35.9 °F 33.3 °F 29.73 in SW 5.0 mph 12.0 mph 90% 0.00 in
16:34 36.1 °F 33.5 °F 29.73 in SW 6.0 mph 12.0 mph 90% 0.00 in
16:39 36.0 °F 33.4 °F 29.73 in SSW 5.0 mph 13.0 mph 90% 0.00 in
16:44 35.8 °F 33.2 °F 29.73 in WSW 8.0 mph 13.0 mph 90% 0.00 in
16:49 35.6 °F 33.0 °F 29.74 in SW 9.0 mph 11.0 mph 90% 0.00 in
16:54 35.5 °F 32.9 °F 29.74 in SW 7.0 mph 13.0 mph 90% 0.00 in
16:59 35.3 °F 32.7 °F 29.75 in SW 12.0 mph 13.0 mph 90% 0.00 in
17:04 35.1 °F 32.5 °F 29.76 in SW 9.0 mph 16.0 mph 90% 0.00 in
17:09 34.9 °F 32.3 °F 29.76 in WSW 8.0 mph 16.0 mph 90% 0.00 in
17:14 34.6 °F 32.0 °F 29.77 in SW 8.0 mph 19.0 mph 90% 0.00 in
17:19 34.3 °F 31.7 °F 29.77 in WSW 10.0 mph 17.0 mph 90% 0.00 in
17:24 34.2 °F 31.6 °F 29.78 in WSW 10.0 mph 17.0 mph 90% 0.00 in
17:29 34.1 °F 31.5 °F 29.78 in WSW 11.0 mph 21.0 mph 90% 0.00 in
17:34 34.0 °F 31.4 °F 29.78 in SW 9.0 mph 17.0 mph 90% 0.00 in
17:39 33.9 °F 31.3 °F 29.79 in WSW 10.0 mph 20.0 mph 90% 0.00 in
17:44 34.0 °F 31.4 °F 29.79 in West 13.0 mph 24.0 mph 90% 0.00 in
17:49 33.9 °F 31.3 °F 29.81 in SW 18.0 mph 26.0 mph 90% 0.00 in
17:54 34.0 °F 31.6 °F 29.81 in West 8.0 mph 18.0 mph 91% 0.00 in
17:59 33.9 °F 31.6 °F 29.81 in WSW 11.0 mph 22.0 mph 91% 0.00 in
18:04 33.8 °F 31.5 °F 29.81 in WSW 14.0 mph 26.0 mph 91% 0.00 in
18:09 33.7 °F 31.4 °F 29.83 in SW 22.0 mph 23.0 mph 91% 0.00 in
18:14 33.5 °F 31.2 °F 29.83 in WSW 13.0 mph 25.0 mph 91% 0.00 in
18:19 33.4 °F 31.1 °F 29.83 in WSW 12.0 mph 25.0 mph 91% 0.00 in
18:24 33.2 °F 30.9 °F 29.84 in WSW 12.0 mph 25.0 mph 91% 0.00 in
18:29 33.1 °F 30.8 °F 29.84 in WSW 13.0 mph 25.0 mph 91% 0.00 in
18:34 33.0 °F 30.7 °F 29.86 in WSW 13.0 mph 23.0 mph 91% 0.00 in
18:39 33.0 °F 30.7 °F 29.86 in WSW 13.0 mph 23.0 mph 91% 0.00 in
18:44 32.8 °F 30.5 °F 29.87 in SW 16.0 mph 26.0 mph 91% 0.00 in
18:54 32.7 °F 30.4 °F 29.88 in WSW 7.0 mph 20.0 mph 91% 0.00 in
18:59 32.6 °F 30.3 °F 29.89 in WNW 14.0 mph 30.0 mph 91% 0.00 in
19:04 32.6 °F 30.3 °F 29.88 in SW 13.0 mph 25.0 mph 91% 0.00 in
19:09 32.5 °F 30.2 °F 29.89 in WNW 11.0 mph 21.0 mph 91% 0.00 in
19:14 32.5 °F 30.2 °F 29.89 in SW 12.0 mph 22.0 mph 91% 0.00 in
19:19 32.4 °F 30.1 °F 29.90 in West 10.0 mph 22.0 mph 91% 0.00 in
19:24 32.4 °F 30.1 °F 29.90 in WSW 12.0 mph 22.0 mph 91% 0.00 in
19:29 32.3 °F 30.0 °F 29.91 in WSW 11.0 mph 21.0 mph 91% 0.00 in
19:34 32.2 °F 29.9 °F 29.91 in WSW 12.0 mph 22.0 mph 91% 0.00 in
19:39 32.1 °F 29.8 °F 29.92 in WSW 12.0 mph 22.0 mph 91% 0.00 in
19:44 32.1 °F 29.8 °F 29.93 in SW 15.0 mph 21.0 mph 91% 0.00 in
19:49 32.0 °F 29.7 °F 29.93 in WSW 8.0 mph 20.0 mph 91% 0.00 in
19:54 32.0 °F 29.7 °F 29.93 in SW 17.0 mph 22.0 mph 91% 0.00 in
19:59 32.0 °F 29.7 °F 29.94 in WSW 11.0 mph 22.0 mph 91% 0.00 in
20:04 31.9 °F 29.6 °F 29.95 in West 7.0 mph 22.0 mph 91% 0.00 in
20:09 31.9 °F 29.6 °F 29.95 in SW 13.0 mph 20.0 mph 91% 0.00 in
20:14 31.8 °F 29.5 °F 29.95 in West 9.0 mph 24.0 mph 91% 0.00 in
20:19 31.8 °F 29.5 °F 29.96 in SW 10.0 mph 19.0 mph 91% 0.00 in
20:24 31.8 °F 29.5 °F 29.96 in West 11.0 mph 19.0 mph 91% 0.00 in
20:29 31.7 °F 29.4 °F 29.97 in WSW 11.0 mph 23.0 mph 91% 0.00 in
20:34 31.6 °F 29.3 °F 29.98 in WSW 10.0 mph 23.0 mph 91% 0.00 in
20:39 31.6 °F 29.3 °F 29.98 in WSW 9.0 mph 17.0 mph 91% 0.00 in
20:44 31.5 °F 29.2 °F 29.98 in WSW 10.0 mph 21.0 mph 91% 0.00 in
20:49 31.4 °F 28.8 °F 29.99 in WSW 10.0 mph 21.0 mph 90% 0.00 in
20:54 31.4 °F 28.8 °F 29.99 in WSW 9.0 mph 18.0 mph 90% 0.00 in
20:59 31.4 °F 28.8 °F 29.99 in SW 7.0 mph 17.0 mph 90% 0.00 in
21:04 31.3 °F 28.7 °F 30.00 in WSW 8.0 mph 18.0 mph 90% 0.00 in
21:09 31.3 °F 28.7 °F 30.01 in West 4.0 mph 15.0 mph 90% 0.00 in
21:14 31.3 °F 28.7 °F 30.01 in West 4.0 mph 13.0 mph 90% 0.00 in
21:19 31.3 °F 28.7 °F 30.01 in WSW 5.0 mph 12.0 mph 90% 0.00 in
21:24 31.2 °F 28.6 °F 30.01 in WSW 5.0 mph 12.0 mph 90% 0.00 in
21:29 31.3 °F 28.7 °F 30.01 in WSW 4.0 mph 9.0 mph 90% 0.00 in
21:34 31.3 °F 28.7 °F 30.02 in West 8.0 mph 12.0 mph 90% 0.00 in
21:39 31.2 °F 28.6 °F 30.02 in WSW 6.0 mph 13.0 mph 90% 0.00 in
21:44 31.1 °F 28.5 °F 30.03 in WSW 7.0 mph 14.0 mph 90% 0.00 in
21:49 30.9 °F 28.0 °F 30.04 in WSW 7.0 mph 14.0 mph 89% 0.00 in
21:54 30.9 °F 28.0 °F 30.04 in WSW 6.0 mph 14.0 mph 89% 0.00 in
21:59 30.7 °F 27.8 °F 30.05 in WSW 6.0 mph 11.0 mph 89% 0.00 in
22:04 30.5 °F 27.6 °F 30.06 in West 10.0 mph 15.0 mph 89% 0.00 in
22:09 30.4 °F 27.5 °F 30.06 in SSW 7.0 mph 14.0 mph 89% 0.00 in
22:14 30.3 °F 27.2 °F 30.07 in WSW 6.0 mph 14.0 mph 88% 0.00 in
22:19 30.2 °F 27.1 °F 30.07 in WSW 5.0 mph 14.0 mph 88% 0.00 in
22:24 30.2 °F 27.1 °F 30.08 in WSW 6.0 mph 14.0 mph 88% 0.00 in
22:29 30.1 °F 27.0 °F 30.08 in West 2.0 mph 12.0 mph 88% 0.00 in
22:34 30.0 °F 26.6 °F 30.08 in SW 8.0 mph 14.0 mph 87% 0.00 in
22:39 29.9 °F 26.5 °F 30.09 in West 4.0 mph 13.0 mph 87% 0.00 in
22:44 29.8 °F 26.4 °F 30.10 in WSW 4.0 mph 11.0 mph 87% 0.00 in
22:49 29.6 °F 26.2 °F 30.10 in WSW 6.0 mph 13.0 mph 87% 0.00 in
22:54 29.5 °F 25.8 °F 30.11 in WSW 7.0 mph 18.0 mph 86% 0.00 in
22:59 29.3 °F 25.6 °F 30.11 in WSW 7.0 mph 18.0 mph 86% 0.00 in
23:04 29.3 °F 25.6 °F 30.12 in WSW 7.0 mph 13.0 mph 86% 0.00 in
23:09 29.1 °F 25.4 °F 30.12 in West 11.0 mph 12.0 mph 86% 0.00 in
23:14 28.9 °F 25.2 °F 30.12 in SW 12.0 mph 18.0 mph 86% 0.00 in
23:19 28.8 °F 25.1 °F 30.12 in WSW 7.0 mph 14.0 mph 86% 0.00 in
23:24 28.6 °F 24.9 °F 30.13 in WSW 8.0 mph 14.0 mph 86% 0.00 in
23:29 28.4 °F 24.5 °F 30.13 in WSW 8.0 mph 17.0 mph 85% 0.00 in
23:34 28.3 °F 24.6 °F 30.13 in SW 5.0 mph 16.0 mph 86% 0.00 in
23:39 28.2 °F 24.6 °F 30.14 in West 10.0 mph 17.0 mph 86% 0.00 in
23:44 28.1 °F 24.5 °F 30.14 in SW 9.0 mph 13.0 mph 86% 0.00 in
23:49 28.0 °F 24.4 °F 30.15 in West 11.0 mph 14.0 mph 86% 0.00 in
23:54 27.9 °F 24.3 °F 30.16 in SSW 6.0 mph 15.0 mph 86% 0.00 in
23:59 27.8 °F 24.2 °F 30.16 in WSW 8.0 mph 17.0 mph 86% 0.00 in
Buffalo, New York, USA
Compliments of Weather Underground - 2.5 mb